Wind_Speed
23 24 25 26 26 27 27 27 28 27 28 27 28 29 28 28 27 28 28 29 29 30 30 31 31 31 31 31 32 33 33 33 33 33 33 34 34 35 35 35 36 36 36 37
25 25 26 27 27 27 28 29 29 28 27 26 27 28 27 27 27 27 28 28 29 30 30 30 30 31 31 31 32 32 32 32 32 32 32 32 33 34 34 34 35 36 36 37
27 26 27 27 25 27 28 28 29 28 26 25 25 26 27 28 27 27 28 29 29 29 29 29 30 30 31 31 32 32 32 31 32 32 32 32 32 33 34 34 34 35 35 36
27 27 28 25 25 26 27 27 28 28 27 26 25 25 26 26 26 27 27 28 28 29 30 30 31 32 32 32 32 32 32 32 32 33 33 33 32 33 33 33 33 33 33 34
26 26 27 25 24 25 26 26 26 27 27 27 27 27 26 26 27 27 28 28 28 29 30 30 31 32 32 32 32 32 31 31 32 32 32 32 32 32 33 33 32 32 32 32
25 26 26 24 23 23 24 24 23 25 26 26 27 27 26 27 27 27 28 28 29 30 31 31 32 32 32 31 31 31 31 31 31 31 31 31 31 31 32 32 31 31 30 30
24 25 24 23 23 23 23 23 23 24 25 26 26 26 26 26 26 27 27 28 29 30 30 31 31 32 32 31 31 31 31 31 30 30 30 30 30 30 30 30 30 30 29 29
23 24 23 22 22 23 23 23 24 24 24 25 25 25 26 25 25 26 26 27 28 29 30 30 30 30 30 30 30 31 31 31 31 31 30 30 30 30 30 30 30 29 29 29
23 23 22 22 22 22 22 23 23 23 24 24 24 25 25 25 25 25 26 27 28 28 27 27 27 28 28 28 28 28 28 29 30 29 29 29 29 28 28 28 28 28 28 28
24 23 23 22 22 22 22 22 22 23 23 24 24 24 24 24 25 26 27 27 26 26 25 25 25 25 25 26 26 25 25 26 26 26 26 26 26 26 26 25 25 26 26 26
23 23 23 22 22 22 22 22 22 22 23 24 24 24 24 23 24 25 25 24 24 24 24 23 23 23 23 24 24 24 24 24 24 24 24 24 24 24 24 24 24 23 23 23
20 21 21 21 22 21 22 22 23 24 24 24 24 23 23 23 23 23 23 23 22 22 22 22 22 22 22 23 23 23 23 23 23 22 22 22 22 22 22 22 22 21 21 21
21 21 21 21 21 22 22 23 24 25 25 24 24 23 23 23 23 23 22 22 22 22 22 21 21 21 21 22 22 22 21 21 21 21 20 20 20 20 20 20 20 20 19 19
22 22 22 22 22 22 23 23 24 25 25 25 24 24 23 23 22 22 22 22 22 21 21 20 20 20 20 20 21 20 19 19 19 18 18 18 18 18 18 18 18 19 19 19
21 22 22 23 23 24 24 24 24 25 25 24 24 24 23 22 22 22 21 21 20 20 19 19 19 19 19 19 19 18 18 17 17 17 17 17 17 17 17 17 17 18 18 19
22 22 22 22 23 24 24 24 25 24 24 24 24 23 23 23 22 22 21 21 20 19 18 18 17 17 17 17 17 17 17 16 16 16 16 16 16 16 17 16 17 17 17 17
22 22 22 22 22 22 23 23 24 24 24 24 23 23 23 23 22 22 22 22 20 19 18 18 18 18 17 17 17 17 17 16 16 15 15 16 16 16 16 16 16 15 15 15
21 22 22 23 22 22 22 23 24 23 23 23 22 22 22 22 22 23 22 22 20 20 19 19 18 18 17 17 17 17 17 16 15 15 15 15 15 14 14 15 15 14 14 14
22 22 22 22 22 22 22 22 22 22 22 22 22 22 21 21 21 22 21 21 20 20 20 20 19 19 18 17 17 16 16 15 15 14 14 14 14 14 13 13 13 13 13 13
20 21 21 21 21 21 21 21 21 21 21 21 21 21 20 20 20 20 20 20 20 21 20 20 20 19 17 16 15 15 15 15 14 14 14 14 13 13 12 12 12 12 12 12
20 20 19 19 19 19 19 19 19 19 20 20 19 19 19 19 19 19 19 19 19 19 19 19 18 17 16 16 15 14 14 14 14 13 12 12 12 12 12 12 12 11 11 11
18 18 18 17 17 18 18 18 18 18 18 18 17 17 17 17 17 17 18 18 17 17 17 17 16 16 15 15 14 14 13 14 13 12 12 11 11 11 11 11 10 10 10 10
17 16 16 17 17 17 17 17 16 16 16 16 16 16 16 16 17 17 17 16 16 16 15 15 15 15 15 15 14 14 13 13 13 12 11 11 10 10 9 9 9 9 10 10
15 15 15 15 15 15 15 15 15 15 16 16 16 16 16 16 16 16 15 15 15 15 14 13 14 14 15 15 15 15 15 14 13 13 12 11 10 10 9 10 10 10 10 11
14 14 14 14 14 14 14 14 15 15 15 15 15 15 15 15 15 15 15 15 14 14 13 13 13 13 14 14 15 15 15 14 14 13 13 13 12 11 11 10 10 10 11 11
14 13 14 14 14 14 15 15 15 15 15 15 14 14 14 14 14 14 15 15 14 13 13 13 13 13 13 14 14 14 14 14 14 14 13 13 13 12 12 11 11 10 10 10
14 14 14 14 15 15 15 15 15 15 14 14 14 13 13 13 14 14 14 14 13 13 13 13 13 13 13 14 14 14 14 14 14 14 14 13 13 12 12 11 11 11 10 10
Wind_Direction
271 271 270 270 270 269 268 270 272 274 273 273 273 273 273 273 271 270 269 267 267 268 268 269 270 268 268 268 268 268 269 269 269 270 269 267 264 264 264 265 264 264 264 266
270 271 272 271 271 270 269 270 273 274 274 274 272 272 272 272 272 271 269 268 267 267 268 269 269 269 269 268 268 268 268 268 269 269 269 267 264 264 265 265 264 265 265 267
270 271 272 272 273 271 270 270 272 273 274 273 272 271 271 272 272 271 270 269 268 268 268 269 269 270 269 268 269 268 267 268 269 269 269 268 266 265 266 267 266 267 268 269
272 272 271 275 273 272 272 271 271 272 271 272 272 273 273 273 273 272 271 270 269 268 268 269 269 269 268 268 268 269 269 269 270 270 268 268 267 267 267 267 267 269 270 270
273 274 274 274 277 276 274 272 272 273 272 272 272 272 272 273 274 274 273 271 270 269 269 270 270 270 270 268 268 269 270 270 270 271 270 268 268 268 268 269 269 270 271 270
273 276 278 278 278 277 276 275 276 276 275 276 274 273 274 273 274 275 274 273 272 272 271 272 271 270 270 269 269 270 270 271 271 272 271 270 269 269 269 269 269 270 271 271
272 275 278 280 279 278 278 279 278 279 278 277 276 275 274 274 275 275 276 277 277 275 274 273 273 272 270 270 270 270 269 270 271 272 271 270 270 270 269 268 268 269 270 271
271 273 277 280 279 279 280 279 279 280 279 278 276 274 273 273 274 276 278 279 279 278 276 275 274 273 272 272 271 270 270 270 271 270 270 270 270 269 268 267 268 268 270 271
268 271 276 278 277 278 279 280 280 281 279 278 276 275 274 273 274 276 278 280 281 280 278 277 276 274 274 273 273 273 273 273 272 271 270 269 268 267 267 267 267 269 270 271
268 271 274 276 275 275 277 278 280 280 280 278 278 277 276 276 276 279 282 283 282 281 279 278 277 276 274 273 274 275 275 275 274 271 270 269 268 268 267 266 268 269 270 270
267 270 272 273 274 273 274 277 279 282 282 281 280 279 278 278 280 282 285 285 284 282 280 278 278 276 274 274 274 276 276 276 275 272 269 268 268 267 265 264 265 268 269 269
267 269 271 273 276 277 277 278 281 283 285 284 282 281 280 279 282 283 285 286 285 283 282 278 276 275 274 276 277 277 277 275 274 274 271 268 267 267 265 264 264 266 268 269
266 267 269 271 274 277 279 281 282 283 284 283 282 281 280 280 282 283 284 285 285 283 281 278 277 277 277 278 279 279 277 275 274 273 270 267 266 266 266 264 263 264 266 268
264 267 269 270 272 275 278 282 284 284 283 282 282 281 281 280 281 283 284 286 286 283 279 278 279 279 279 279 280 279 276 275 274 272 269 267 267 266 265 263 262 262 263 267
268 270 271 272 273 275 280 282 283 283 283 281 280 280 281 281 281 281 282 285 285 282 279 279 279 280 281 281 281 279 277 275 274 273 270 268 267 267 265 263 262 263 264 268
269 271 273 274 277 279 282 282 283 283 282 280 279 279 279 280 280 280 280 282 283 282 280 279 280 280 282 281 280 279 277 276 277 274 269 267 267 267 264 263 265 266 267 268
269 271 273 276 279 281 282 283 283 282 281 280 279 278 278 279 279 279 279 280 279 279 278 278 279 281 282 281 280 278 277 276 275 272 269 267 267 267 264 264 266 265 266 267
272 274 276 278 280 281 282 283 283 282 281 279 278 277 278 277 277 277 277 277 276 277 278 278 279 280 281 280 278 275 274 273 271 269 268 267 266 265 264 264 262 261 262 264
275 277 279 280 282 283 284 284 283 282 282 281 279 278 277 277 277 277 276 275 274 275 277 277 277 278 279 277 276 273 271 269 268 267 266 266 264 264 265 262 259 257 257 261
277 278 280 281 282 284 285 285 284 282 282 283 282 279 278 277 276 277 277 276 275 275 275 274 274 274 273 271 270 269 268 267 265 265 264 261 260 260 259 257 255 255 258 263
280 281 280 280 282 284 285 286 285 285 284 284 284 282 279 278 278 278 278 278 277 276 275 273 270 268 267 265 265 265 266 266 266 264 262 259 257 257 258 257 254 256 260 262
281 281 280 281 283 284 285 286 286 286 285 285 284 283 281 279 278 279 280 280 278 276 275 271 267 264 262 262 262 262 263 265 263 261 259 258 258 258 259 259 257 256 258 262
283 282 281 282 284 285 285 285 286 285 285 284 284 283 282 281 280 280 281 280 278 277 274 270 264 261 261 260 260 259 259 260 260 258 257 256 256 257 259 259 257 260 262 265
286 286 286 286 286 286 285 284 283 284 286 288 287 285 284 284 283 281 279 279 278 276 273 267 264 262 260 258 257 256 256 257 257 256 255 254 255 256 258 260 261 263 264 266
285 286 286 287 288 289 288 286 285 286 288 289 289 288 286 285 283 280 280 280 279 275 270 266 264 262 260 257 256 255 254 254 254 254 252 251 253 255 258 261 263 264 264 263
284 285 286 288 291 293 293 291 289 288 288 287 288 289 286 285 284 282 281 279 275 270 267 265 263 262 260 259 257 254 252 251 251 251 250 250 252 253 256 259 261 264 264 262
282 284 287 289 291 292 293 294 292 290 288 288 288 288 286 285 285 284 281 277 271 268 267 266 264 263 262 260 257 253 251 250 249 248 247 247 249 251 253 256 260 262 262 261
Height
5599 5599 5598 5598 5598 5597 5597 5597 5596 5597 5597 5598 5596 5595 5595 5594 5594 5594 5594 5594 5593 5593 5593 5592 5592 5592 5592 5591 5591 5591 5591 5590 5590 5589 5588 5587 5587 5586 5586 5586 5586 5586 5586 5587
5592 5591 5590 5589 5590 5590 5589 5589 5588 5588 5589 5589 5587 5586 5586 5586 5585 5585 5585 5585 5585 5584 5584 5584 5583 5583 5583 5582 5582 5582 5581 5581 5580 5579 5579 5578 5577 5577 5577 5577 5576 5576 5576 5576
5584 5584 5581 5582 5584 5583 5582 5581 5580 5579 5582 5580 5579 5578 5578 5577 5577 5577 5577 5576 5576 5576 5575 5575 5574 5574 5573 5573 5572 5572 5572 5571 5570 5570 5569 5568 5568 5567 5567 5567 5567 5566 5566 5565
5576 5576 5573 5579 5576 5575 5573 5573 5572 5572 5572 5572 5571 5570 5570 5569 5569 5568 5568 5568 5567 5567 5566 5566 5565 5565 5564 5564 5563 5563 5562 5562 5561 5560 5560 5559 5558 5558 5557 5557 5557 5556 5556 5556
5568 5566 5566 5570 5569 5567 5565 5565 5565 5564 5564 5563 5562 5562 5562 5561 5560 5560 5559 5559 5558 5557 5557 5556 5556 5555 5554 5554 5553 5553 5553 5552 5552 5551 5550 5549 5549 5549 5548 5548 5547 5547 5547 5546
5561 5559 5559 5563 5562 5559 5558 5558 5558 5556 5555 5555 5554 5554 5555 5553 5552 5551 5550 5550 5549 5548 5547 5547 5546 5545 5545 5544 5544 5543 5543 5543 5542 5541 5540 5540 5539 5539 5539 5538 5538 5538 5537 5537
5553 5552 5552 5556 5553 5552 5552 5553 5550 5549 5548 5547 5547 5547 5547 5545 5544 5543 5542 5541 5540 5539 5538 5537 5536 5535 5535 5535 5534 5533 5533 5533 5532 5531 5531 5530 5530 5530 5529 5529 5529 5529 5528 5528
5546 5545 5548 5548 5546 5546 5545 5544 5542 5541 5540 5539 5539 5538 5538 5537 5536 5535 5534 5533 5531 5530 5529 5528 5527 5526 5525 5525 5524 5523 5523 5523 5522 5521 5521 5520 5520 5520 5520 5520 5520 5519 5519 5519
5540 5542 5541 5540 5539 5538 5537 5536 5535 5534 5533 5532 5531 5530 5530 5529 5528 5527 5526 5525 5523 5521 5520 5519 5518 5517 5516 5516 5515 5514 5513 5513 5512 5511 5511 5511 5510 5510 5510 5510 5510 5510 5510 5510
5533 5533 5533 5533 5532 5531 5530 5529 5528 5527 5526 5525 5524 5523 5522 5521 5521 5519 5518 5516 5515 5513 5512 5511 5510 5508 5508 5507 5506 5505 5504 5504 5503 5502 5502 5501 5501 5501 5501 5502 5502 5502 5501 5501
5525 5526 5526 5526 5525 5524 5523 5522 5521 5520 5519 5518 5517 5516 5515 5514 5513 5512 5510 5509 5507 5506 5504 5503 5502 5501 5500 5499 5498 5497 5496 5496 5495 5494 5493 5493 5493 5493 5493 5494 5494 5494 5494 5494
5520 5520 5519 5519 5518 5517 5516 5516 5515 5513 5512 5511 5510 5509 5508 5507 5506 5504 5503 5501 5500 5499 5497 5496 5495 5494 5493 5492 5491 5490 5489 5488 5487 5486 5485 5485 5485 5485 5485 5486 5486 5487 5487 5487
5513 5512 5512 5512 5511 5510 5509 5509 5507 5506 5505 5503 5502 5501 5500 5499 5498 5497 5496 5494 5493 5491 5490 5489 5488 5487 5486 5485 5484 5482 5481 5480 5480 5479 5478 5478 5478 5479 5479 5479 5479 5480 5480 5481
5505 5505 5505 5505 5504 5503 5502 5501 5500 5499 5497 5496 5495 5494 5493 5492 5491 5490 5489 5487 5486 5484 5483 5482 5481 5480 5479 5478 5477 5476 5475 5474 5473 5472 5472 5472 5472 5472 5473 5473 5474 5474 5475 5475
5499 5498 5498 5497 5497 5496 5495 5494 5493 5491 5490 5488 5487 5486 5486 5485 5484 5483 5482 5480 5479 5478 5477 5476 5475 5474 5473 5472 5471 5470 5469 5468 5467 5467 5466 5466 5466 5467 5467 5467 5468 5469 5469 5469
5491 5491 5490 5490 5489 5489 5487 5486 5485 5484 5482 5481 5480 5479 5478 5478 5477 5476 5475 5474 5473 5472 5471 5470 5469 5468 5467 5466 5465 5464 5463 5463 5462 5461 5461 5461 5461 5461 5462 5462 5463 5463 5463 5464
5484 5484 5484 5483 5482 5481 5480 5478 5477 5476 5474 5473 5472 5472 5471 5470 5469 5469 5468 5467 5466 5465 5465 5464 5463 5462 5461 5460 5460 5459 5458 5457 5457 5456 5456 5456 5456 5456 5457 5457 5457 5458 5458 5458
5477 5477 5476 5476 5475 5474 5472 5471 5470 5468 5467 5466 5465 5464 5463 5463 5462 5461 5461 5460 5459 5459 5458 5458 5457 5456 5456 5455 5454 5454 5453 5452 5452 5452 5451 5451 5451 5451 5452 5452 5452 5453 5453 5453
5470 5469 5469 5468 5467 5466 5465 5463 5462 5461 5460 5459 5458 5457 5456 5456 5455 5454 5453 5453 5452 5452 5452 5451 5451 5450 5450 5449 5449 5449 5448 5448 5447 5447 5447 5447 5447 5447 5447 5447 5448 5448 5448 5449
5463 5462 5461 5460 5459 5458 5457 5456 5455 5454 5452 5451 5450 5449 5449 5448 5448 5447 5446 5446 5446 5445 5445 5445 5444 5444 5444 5444 5444 5444 5443 5443 5443 5443 5443 5443 5443 5443 5443 5443 5443 5444 5444 5445
5456 5455 5455 5454 5453 5452 5451 5449 5448 5447 5445 5444 5443 5442 5442 5442 5441 5440 5440 5440 5439 5438 5438 5438 5438 5438 5438 5438 5439 5439 5439 5439 5439 5439 5439 5439 5439 5439 5439 5439 5439 5440 5440 5441
5450 5449 5449 5448 5447 5446 5445 5443 5442 5440 5439 5438 5437 5436 5436 5435 5435 5434 5434 5433 5433 5432 5431 5431 5431 5432 5432 5433 5433 5434 5434 5434 5434 5434 5435 5435 5435 5435 5435 5436 5436 5436 5437 5437
5445 5444 5443 5442 5441 5440 5439 5437 5436 5435 5434 5433 5432 5431 5430 5429 5429 5428 5428 5427 5427 5426 5426 5426 5426 5426 5427 5428 5428 5429 5429 5430 5430 5430 5431 5431 5431 5432 5432 5432 5432 5433 5433 5433
5440 5439 5438 5437 5436 5435 5434 5432 5431 5430 5429 5428 5427 5426 5425 5424 5424 5423 5422 5422 5421 5421 5420 5420 5421 5421 5422 5422 5423 5424 5424 5425 5426 5426 5427 5427 5428 5428 5428 5429 5429 5429 5429 5430
5435 5434 5433 5432 5431 5430 5429 5427 5426 5425 5424 5423 5422 5421 5420 5419 5419 5418 5417 5417 5416 5416 5416 5416 5416 5416 5416 5417 5418 5418 5419 5420 5421 5421 5422 5423 5424 5424 5425 5425 5425 5425 5426 5426
5431 5430 5429 5428 5427 5426 5424 5423 5422 5421 5419 5419 5418 5417 5416 5415 5414 5413 5413 5412 5411 5411 5411 5411 5411 5411 5411 5412 5412 5413 5414 5415 5416 5417 5417 5418 5419 5420 5421 5421 5421 5421 5422 5422
5427 5426 5425 5424 5423 5421 5420 5418 5417 5416 5415 5414 5413 5412 5411 5410 5409 5408 5408 5407 5406 5406 5406 5406 5406 5406 5406 5406 5407 5408 5408 5409 5410 5411 5412 5414 5415 5415 5416 5417 5417 5418 5418 5418